Location: Oulou
(10.7667°N, 12.5167°W)
Time: 11:33:55
(UTC+00:00)

COSMOS 2455 - Pass Details

Date: 20 September 2019
Orbit: 900 x 910 km, 67.1° (Epoch: 15 October)

Event Time Altitude Azimuth Distance (km) Brightness Sun altitude
Rises 20:14:46 0° 339° (NNW) 3,523 6.3 -22.2°
Reaches altitude 10° 20:17:16 10° 339° (NNW) 2,580 5.5 -22.8°
Maximum altitude 20:23:16 87° 251° (WSW) 908 2.8 -24.3°
Enters shadow 20:26:25 30° 163° (SSE) 1,562 3.8 -25.0°
